Time,TemperatureF,DewpointF,PressureIn,WindDirection,WindDirectionDegrees,WindSpeedMPH,WindSpeedGustMPH,Humidity,HourlyPrecipIn,Conditions,Clouds,dailyrainin,SoftwareType,DateUTC
2013-10-23 00:02:00,51.0,47.0,30.03,WSW,248,0.0,0.0,86,0.00,,---,0.00,VWS V14.01,2013-10-23 05:02:00,
2013-10-23 00:07:00,50.8,47.1,30.03,WSW,248,0.0,0.0,87,0.00,,---,0.00,VWS V14.01,2013-10-23 05:07:00,
2013-10-23 00:12:00,50.8,47.1,30.03,WSW,248,0.0,0.0,87,0.00,,---,0.00,VWS V14.01,2013-10-23 05:12:00,
2013-10-23 00:17:00,50.8,47.1,30.03,ESE,112,0.0,0.0,87,0.00,,---,0.00,VWS V14.01,2013-10-23 05:17:00,
2013-10-23 00:22:00,50.8,47.1,30.03,SSE,158,0.0,0.0,87,0.00,,---,0.00,VWS V14.01,2013-10-23 05:22:00,
2013-10-23 00:27:00,50.8,47.1,30.03,SSE,158,0.0,0.0,87,0.00,,---,0.00,VWS V14.01,2013-10-23 05:27:00,
2013-10-23 00:32:00,50.6,46.6,30.03,SSE,158,0.0,0.0,86,0.00,,---,0.00,VWS V14.01,2013-10-23 05:32:00,
2013-10-23 00:37:00,50.5,46.4,30.03,SSE,158,0.0,0.0,86,0.00,,---,0.00,VWS V14.01,2013-10-23 05:37:00,
2013-10-23 00:42:00,50.5,46.4,30.03,SSE,158,0.0,0.0,86,0.00,,---,0.00,VWS V14.01,2013-10-23 05:42:00,
2013-10-23 00:47:00,50.5,46.4,30.03,SSE,158,0.0,0.0,86,0.00,,---,0.00,VWS V14.01,2013-10-23 05:47:00,
2013-10-23 00:52:00,50.1,46.1,30.03,SSW,202,0.0,0.0,86,0.00,,---,0.00,VWS V14.01,2013-10-23 05:52:00,
2013-10-23 00:57:00,49.9,45.9,30.03,WSW,248,0.0,0.0,86,0.00,,---,0.00,VWS V14.01,2013-10-23 05:57:00,
2013-10-23 01:02:00,49.7,45.7,30.03,WSW,248,0.0,0.0,86,0.00,,---,0.00,VWS V14.01,2013-10-23 06:02:00,
2013-10-23 01:07:00,49.4,45.4,30.03,WSW,248,0.0,0.0,86,0.00,,---,0.00,VWS V14.01,2013-10-23 06:07:00,
2013-10-23 01:12:00,49.4,45.4,30.03,WSW,248,0.0,0.0,86,0.00,,---,0.00,VWS V14.01,2013-10-23 06:12:00,
2013-10-23 01:17:00,49.4,45.4,30.03,WSW,248,0.0,0.0,86,0.00,,---,0.00,VWS V14.01,2013-10-23 06:17:00,
2013-10-23 01:22:00,49.2,45.2,30.03,WSW,248,0.0,0.0,86,0.00,,---,0.00,VWS V14.01,2013-10-23 06:22:00,
2013-10-23 01:27:00,49.2,45.2,30.03,WSW,248,0.0,0.0,86,0.00,,---,0.00,VWS V14.01,2013-10-23 06:27:00,
2013-10-23 01:32:00,49.2,45.2,30.03,WSW,248,0.0,0.0,86,0.00,,---,0.00,VWS V14.01,2013-10-23 06:32:00,
2013-10-23 01:37:00,49.0,45.3,30.03,WSW,248,0.0,0.0,87,0.00,,---,0.00,VWS V14.01,2013-10-23 06:37:00,
2013-10-23 01:42:00,49.0,45.3,30.03,WSW,248,0.0,0.0,87,0.00,,---,0.00,VWS V14.01,2013-10-23 06:42:00,
2013-10-23 01:47:00,49.0,45.3,30.03,WSW,248,0.0,0.0,87,0.00,,---,0.00,VWS V14.01,2013-10-23 06:47:00,
2013-10-23 01:52:00,48.8,45.2,30.03,WSW,248,0.0,0.0,87,0.00,,---,0.00,VWS V14.01,2013-10-23 06:52:00,
2013-10-23 01:57:00,48.7,45.0,30.03,WSW,248,0.0,0.0,87,0.00,,---,0.00,VWS V14.01,2013-10-23 06:57:00,
2013-10-23 02:02:00,48.7,45.0,30.03,WSW,248,0.0,0.0,87,0.00,,---,0.00,VWS V14.01,2013-10-23 07:02:00,
2013-10-23 02:07:00,48.7,45.3,30.03,West,270,0.0,0.0,88,0.00,,---,0.00,VWS V14.01,2013-10-23 07:07:00,
2013-10-23 02:12:00,48.7,45.3,30.03,West,270,0.0,0.0,88,0.00,,---,0.00,VWS V14.01,2013-10-23 07:12:00,
2013-10-23 02:17:00,48.8,45.8,30.03,West,270,0.0,0.0,89,0.00,,---,0.00,VWS V14.01,2013-10-23 07:17:00,
2013-10-23 02:22:00,48.7,45.6,30.03,West,270,0.0,0.0,89,0.00,,---,0.00,VWS V14.01,2013-10-23 07:22:00,
2013-10-23 02:27:00,48.8,46.0,30.03,WNW,292,0.0,0.0,90,0.00,,---,0.00,VWS V14.01,2013-10-23 07:27:00,
2013-10-23 02:32:00,49.0,46.5,30.03,WNW,292,0.0,0.0,91,0.00,,---,0.00,VWS V14.01,2013-10-23 07:32:00,
2013-10-23 02:37:00,49.0,46.5,30.03,WNW,292,0.0,0.0,91,0.00,,---,0.00,VWS V14.01,2013-10-23 07:37:00,
2013-10-23 02:42:00,49.0,46.8,30.03,WNW,292,0.0,0.0,92,0.00,,---,0.00,VWS V14.01,2013-10-23 07:42:00,
2013-10-23 02:47:00,49.2,47.0,30.03,WNW,292,0.0,0.0,92,0.00,,---,0.00,VWS V14.01,2013-10-23 07:47:00,
2013-10-23 02:52:00,49.4,47.2,30.03,WNW,292,0.0,0.0,92,0.00,,---,0.00,VWS V14.01,2013-10-23 07:52:00,
2013-10-23 02:57:00,49.6,47.6,30.03,WNW,292,0.0,0.0,93,0.00,,---,0.00,VWS V14.01,2013-10-23 07:57:00,
2013-10-23 03:02:00,49.7,47.8,30.03,WNW,292,0.0,0.0,93,0.00,,---,0.00,VWS V14.01,2013-10-23 08:02:00,
2013-10-23 03:07:00,49.7,47.8,30.03,WNW,292,0.0,0.0,93,0.00,,---,0.00,VWS V14.01,2013-10-23 08:07:00,
2013-10-23 03:12:00,49.9,48.0,30.03,WNW,292,0.0,0.0,93,0.00,,---,0.00,VWS V14.01,2013-10-23 08:12:00,
2013-10-23 03:17:00,49.9,48.0,30.03,WNW,292,0.0,0.0,93,0.00,,---,0.00,VWS V14.01,2013-10-23 08:17:00,
2013-10-23 03:22:00,50.1,48.2,30.03,WNW,292,0.0,0.0,93,0.00,,---,0.00,VWS V14.01,2013-10-23 08:22:00,
2013-10-23 03:27:00,50.1,48.2,30.03,WNW,292,0.0,0.0,93,0.00,,---,0.00,VWS V14.01,2013-10-23 08:27:00,
2013-10-23 03:32:00,50.1,48.2,30.03,WNW,292,0.0,0.0,93,0.00,,---,0.00,VWS V14.01,2013-10-23 08:32:00,
2013-10-23 03:37:00,50.3,48.3,30.03,WNW,292,0.0,0.0,93,0.00,,---,0.00,VWS V14.01,2013-10-23 08:37:00,
2013-10-23 03:42:00,50.3,48.3,30.03,WNW,292,0.0,0.0,93,0.00,,---,0.00,VWS V14.01,2013-10-23 08:42:00,
2013-10-23 03:47:00,50.3,48.3,30.03,WNW,292,0.0,0.0,93,0.00,,---,0.00,VWS V14.01,2013-10-23 08:47:00,
2013-10-23 03:52:00,50.5,48.5,30.03,WNW,292,0.0,0.0,93,0.00,,---,0.00,VWS V14.01,2013-10-23 08:52:00,
2013-10-23 03:57:00,50.6,48.7,30.03,WNW,292,0.0,0.0,93,0.00,,---,0.00,VWS V14.01,2013-10-23 08:57:00,
2013-10-23 04:02:00,50.6,48.7,30.03,WNW,292,0.0,0.0,93,0.00,,---,0.00,VWS V14.01,2013-10-23 09:02:00,
2013-10-23 04:07:00,50.6,48.4,30.03,WNW,292,0.0,0.0,92,0.00,,---,0.00,VWS V14.01,2013-10-23 09:07:00,
2013-10-23 04:12:00,50.6,48.4,30.03,WNW,292,0.0,0.0,92,0.00,,---,0.00,VWS V14.01,2013-10-23 09:12:00,
2013-10-23 04:17:00,50.5,48.2,30.03,WNW,292,0.0,0.0,92,0.00,,---,0.00,VWS V14.01,2013-10-23 09:17:00,
2013-10-23 04:22:00,50.5,48.2,30.03,WNW,292,0.0,0.0,92,0.00,,---,0.00,VWS V14.01,2013-10-23 09:22:00,
2013-10-23 04:27:00,50.5,47.9,30.03,WNW,292,0.0,0.0,91,0.00,,---,0.00,VWS V14.01,2013-10-23 09:27:00,
2013-10-23 04:32:00,50.3,47.8,30.03,WNW,292,0.0,0.0,91,0.00,,---,0.00,VWS V14.01,2013-10-23 09:32:00,
2013-10-23 04:38:00,50.3,47.8,30.03,WNW,292,0.0,0.0,91,0.00,,---,0.00,VWS V14.01,2013-10-23 09:38:00,
2013-10-23 04:43:00,50.1,47.6,30.03,WNW,292,0.0,0.0,91,0.00,,---,0.00,VWS V14.01,2013-10-23 09:43:00,
2013-10-23 04:48:00,50.1,47.3,30.03,WNW,292,0.0,0.0,90,0.00,,---,0.00,VWS V14.01,2013-10-23 09:48:00,
2013-10-23 04:53:00,49.9,47.1,30.03,WNW,292,0.0,0.0,90,0.00,,---,0.00,VWS V14.01,2013-10-23 09:53:00,
2013-10-23 04:58:00,49.7,46.9,30.03,WNW,292,0.0,0.0,90,0.00,,---,0.00,VWS V14.01,2013-10-23 09:58:00,
2013-10-23 05:03:00,49.6,46.5,30.03,WNW,292,0.0,0.0,89,0.00,,---,0.00,VWS V14.01,2013-10-23 10:03:00,
2013-10-23 05:08:00,49.4,46.3,30.03,WNW,292,0.0,0.0,89,0.00,,---,0.00,VWS V14.01,2013-10-23 10:08:00,
2013-10-23 05:13:00,49.2,46.1,30.03,WNW,292,0.0,0.0,89,0.00,,---,0.00,VWS V14.01,2013-10-23 10:13:00,
2013-10-23 05:18:00,48.8,45.8,30.03,WNW,292,0.0,0.0,89,0.00,,---,0.00,VWS V14.01,2013-10-23 10:18:00,
2013-10-23 05:23:00,48.8,45.8,30.03,WNW,292,0.0,0.0,89,0.00,,---,0.00,VWS V14.01,2013-10-23 10:23:00,
2013-10-23 05:28:00,48.7,45.6,30.03,WNW,292,0.0,0.0,89,0.00,,---,0.00,VWS V14.01,2013-10-23 10:28:00,
2013-10-23 05:33:00,48.7,45.9,30.03,WNW,292,0.0,0.0,90,0.00,,---,0.00,VWS V14.01,2013-10-23 10:33:00,
2013-10-23 05:38:00,48.7,45.9,30.03,WNW,292,0.0,0.0,90,0.00,,---,0.00,VWS V14.01,2013-10-23 10:38:00,
2013-10-23 05:43:00,48.7,45.9,30.06,WNW,292,0.0,0.0,90,0.00,,---,0.00,VWS V14.01,2013-10-23 10:43:00,
2013-10-23 05:48:00,48.7,45.9,30.06,NNW,338,0.0,0.0,90,0.00,,---,0.00,VWS V14.01,2013-10-23 10:48:00,
2013-10-23 05:53:00,48.7,45.9,30.06,North,0,0.0,0.0,90,0.00,,---,0.00,VWS V14.01,2013-10-23 10:53:00,
2013-10-23 05:58:00,48.7,45.9,30.06,NE,45,0.0,0.0,90,0.00,,---,0.00,VWS V14.01,2013-10-23 10:58:00,
2013-10-23 06:03:00,48.5,45.7,30.06,NE,45,0.0,0.0,90,0.00,,---,0.00,VWS V14.01,2013-10-23 11:03:00,
2013-10-23 06:08:00,48.5,45.7,30.06,ENE,68,0.0,0.0,90,0.00,,---,0.00,VWS V14.01,2013-10-23 11:08:00,
2013-10-23 06:13:00,48.5,45.7,30.06,ENE,68,0.0,0.0,90,0.00,,---,0.00,VWS V14.01,2013-10-23 11:13:00,
2013-10-23 06:18:00,48.5,45.7,30.06,ENE,68,0.0,0.0,90,0.00,,---,0.00,VWS V14.01,2013-10-23 11:18:00,
2013-10-23 06:23:00,48.5,45.7,30.06,ENE,68,0.0,0.0,90,0.00,,---,0.00,VWS V14.01,2013-10-23 11:23:00,
2013-10-23 06:28:00,48.5,45.7,30.06,ENE,68,0.0,0.0,90,0.00,,---,0.00,VWS V14.01,2013-10-23 11:28:00,
2013-10-23 06:33:00,48.5,46.0,30.06,ENE,68,0.0,0.0,91,0.00,,---,0.00,VWS V14.01,2013-10-23 11:33:00,
2013-10-23 06:38:00,48.5,46.0,30.06,ENE,68,0.0,0.0,91,0.00,,---,0.00,VWS V14.01,2013-10-23 11:38:00,
2013-10-23 06:43:00,48.5,46.0,30.06,ENE,68,0.0,0.0,91,0.00,,---,0.00,VWS V14.01,2013-10-23 11:43:00,
2013-10-23 06:48:00,48.3,45.5,30.06,ENE,68,0.0,0.0,90,0.00,,---,0.00,VWS V14.01,2013-10-23 11:48:00,
2013-10-23 06:53:00,48.1,45.3,30.06,NE,45,0.0,0.0,90,0.00,,---,0.00,VWS V14.01,2013-10-23 11:53:00,
2013-10-23 06:58:00,48.1,45.3,30.06,NNE,22,0.0,0.0,90,0.00,,---,0.00,VWS V14.01,2013-10-23 11:58:00,
2013-10-23 07:03:00,47.8,44.7,30.06,North,0,0.0,0.0,89,0.00,,---,0.00,VWS V14.01,2013-10-23 12:03:00,
2013-10-23 07:08:00,47.8,45.0,30.06,North,0,0.0,0.0,90,0.00,,---,0.00,VWS V14.01,2013-10-23 12:08:00,
2013-10-23 07:13:00,47.8,45.0,30.06,North,0,0.0,0.0,90,0.00,,---,0.00,VWS V14.01,2013-10-23 12:13:00,
2013-10-23 07:18:00,47.6,44.8,30.06,North,0,0.0,0.0,90,0.00,,---,0.00,VWS V14.01,2013-10-23 12:18:00,
2013-10-23 07:23:00,47.6,44.8,30.06,North,0,0.0,0.0,90,0.00,,---,0.00,VWS V14.01,2013-10-23 12:23:00,
2013-10-23 07:28:00,47.8,45.3,30.09,North,0,0.0,0.0,91,0.00,,---,0.00,VWS V14.01,2013-10-23 12:28:00,
2013-10-23 07:33:00,47.6,44.8,30.09,North,0,0.0,0.0,90,0.00,,---,0.00,VWS V14.01,2013-10-23 12:33:00,
2013-10-23 07:38:00,47.6,44.8,30.09,North,0,0.0,0.0,90,0.00,,---,0.00,VWS V14.01,2013-10-23 12:38:00,
2013-10-23 07:43:00,47.4,44.6,30.09,North,0,0.0,0.0,90,0.00,,---,0.00,VWS V14.01,2013-10-23 12:43:00,
2013-10-23 07:48:00,47.6,45.1,30.09,North,0,0.0,0.0,91,0.00,,---,0.00,VWS V14.01,2013-10-23 12:48:00,
2013-10-23 07:53:00,47.6,45.1,30.09,North,0,0.0,0.0,91,0.00,,---,0.00,VWS V14.01,2013-10-23 12:53:00,
2013-10-23 07:58:00,47.6,45.1,30.09,North,0,0.0,0.0,91,0.00,,---,0.00,VWS V14.01,2013-10-23 12:58:00,
2013-10-23 08:03:00,47.8,45.3,30.09,North,0,0.0,0.0,91,0.00,,---,0.00,VWS V14.01,2013-10-23 13:03:00,
2013-10-23 08:08:00,47.8,45.5,30.09,North,0,0.0,0.0,92,0.00,,---,0.00,VWS V14.01,2013-10-23 13:08:00,
2013-10-23 08:13:00,47.9,45.7,30.09,North,0,0.0,0.0,92,0.00,,---,0.00,VWS V14.01,2013-10-23 13:13:00,
2013-10-23 08:18:00,48.1,45.9,30.09,North,0,0.0,0.0,92,0.00,,---,0.00,VWS V14.01,2013-10-23 13:18:00,
2013-10-23 08:23:00,48.3,46.4,30.09,North,0,0.0,0.0,93,0.00,,---,0.00,VWS V14.01,2013-10-23 13:23:00,
2013-10-23 08:28:00,48.7,46.7,30.09,NNW,338,1.6,1.6,93,0.00,,---,0.00,VWS V14.01,2013-10-23 13:28:00,
2013-10-23 08:33:00,49.2,47.5,30.09,NW,315,0.0,0.0,94,0.00,,---,0.00,VWS V14.01,2013-10-23 13:33:00,
2013-10-23 08:38:00,49.7,48.4,30.09,NNW,338,0.0,0.0,95,0.00,,---,0.00,VWS V14.01,2013-10-23 13:38:00,
2013-10-23 08:43:00,50.3,48.9,30.09,NNW,338,1.3,2.2,95,0.00,,---,0.00,VWS V14.01,2013-10-23 13:43:00,
2013-10-23 08:48:00,51.4,50.3,30.09,NW,315,1.6,2.0,96,0.00,,---,0.00,VWS V14.01,2013-10-23 13:48:00,
2013-10-23 08:53:00,52.1,51.0,30.09,NNW,338,0.9,0.9,96,0.00,,---,0.00,VWS V14.01,2013-10-23 13:53:00,
2013-10-23 08:58:00,52.8,51.7,30.09,NW,315,2.9,2.9,96,0.00,,---,0.00,VWS V14.01,2013-10-23 13:58:00,
2013-10-23 09:03:00,53.7,52.9,30.09,NNW,338,1.1,1.1,97,0.00,,---,0.00,VWS V14.01,2013-10-23 14:03:00,
2013-10-23 09:08:00,54.4,53.6,30.09,NNW,338,0.0,0.0,97,0.00,,---,0.00,VWS V14.01,2013-10-23 14:08:00,
2013-10-23 09:13:00,55.1,53.7,30.09,NNW,338,0.0,0.9,95,0.00,,---,0.00,VWS V14.01,2013-10-23 14:13:00,
2013-10-23 09:18:00,55.7,54.0,30.09,NE,45,0.0,0.0,94,0.00,,---,0.00,VWS V14.01,2013-10-23 14:18:00,
2013-10-23 09:23:00,56.2,53.3,30.09,WNW,292,0.0,0.0,90,0.00,,---,0.00,VWS V14.01,2013-10-23 14:23:00,
2013-10-23 09:28:00,56.9,51.5,30.12,NNW,338,2.5,2.9,82,0.00,,---,0.00,VWS V14.01,2013-10-23 14:28:00,
2013-10-23 09:33:00,57.5,49.3,30.12,WNW,292,2.0,2.0,74,0.00,,---,0.00,VWS V14.01,2013-10-23 14:33:00,
2013-10-23 09:38:00,58.0,48.7,30.12,NW,315,2.9,2.9,71,0.00,,---,0.00,VWS V14.01,2013-10-23 14:38:00,
2013-10-23 09:43:00,58.6,48.8,30.12,WNW,292,6.0,6.0,70,0.00,,---,0.00,VWS V14.01,2013-10-23 14:43:00,
2013-10-23 09:48:00,58.9,48.0,30.12,WNW,292,1.6,1.6,67,0.00,,---,0.00,VWS V14.01,2013-10-23 14:48:00,
2013-10-23 09:53:00,59.5,48.1,30.12,NNE,22,0.9,1.3,66,0.00,,---,0.00,VWS V14.01,2013-10-23 14:53:00,
2013-10-23 09:58:00,59.8,48.5,30.12,NW,315,1.3,1.3,66,0.00,,---,0.00,VWS V14.01,2013-10-23 14:58:00,
2013-10-23 10:03:00,60.4,47.7,30.12,North,0,0.0,2.0,63,0.00,,---,0.00,VWS V14.01,2013-10-23 15:03:00,
2013-10-23 10:08:00,60.7,43.0,30.12,NNW,338,3.4,3.4,52,0.00,,---,0.00,VWS V14.01,2013-10-23 15:08:00,
2013-10-23 10:13:00,61.3,44.0,30.12,West,270,3.6,4.0,53,0.00,,---,0.00,VWS V14.01,2013-10-23 15:13:00,
2013-10-23 10:19:00,61.4,42.1,30.12,NW,315,7.8,7.8,49,0.00,,---,0.00,VWS V14.01,2013-10-23 15:19:00,
2013-10-23 10:24:00,61.6,42.3,30.12,NNW,338,3.6,3.6,49,0.00,,---,0.00,VWS V14.01,2013-10-23 15:24:00,
2013-10-23 10:29:00,62.0,42.6,30.12,NNW,338,2.9,2.9,49,0.00,,---,0.00,VWS V14.01,2013-10-23 15:29:00,
2013-10-23 10:34:00,62.2,41.2,30.12,NW,315,3.8,6.5,46,0.00,,---,0.00,VWS V14.01,2013-10-23 15:34:00,
2013-10-23 10:39:00,62.3,42.4,30.12,NNW,338,1.6,3.6,48,0.00,,---,0.00,VWS V14.01,2013-10-23 15:39:00,
2013-10-23 10:44:00,62.5,43.1,30.12,NNE,22,1.3,1.3,49,0.00,,---,0.00,VWS V14.01,2013-10-23 15:44:00,
2013-10-23 10:49:00,62.7,42.2,30.12,NNE,22,1.1,3.4,47,0.00,,---,0.00,VWS V14.01,2013-10-23 15:49:00,
2013-10-23 10:54:00,62.9,41.2,30.12,NNE,22,2.5,2.5,45,0.00,,---,0.00,VWS V14.01,2013-10-23 15:54:00,
2013-10-23 10:59:00,63.1,40.8,30.12,NNW,338,1.6,1.6,44,0.00,,---,0.00,VWS V14.01,2013-10-23 15:59:00,
2013-10-23 11:04:00,63.2,41.0,30.12,NNE,22,1.6,3.1,44,0.00,,---,0.00,VWS V14.01,2013-10-23 16:04:00,
2013-10-23 11:09:00,63.4,40.5,30.12,WNW,292,8.5,8.5,43,0.00,,---,0.00,VWS V14.01,2013-10-23 16:09:00,
2013-10-23 11:14:00,63.6,41.3,30.12,NNW,338,0.0,0.0,44,0.00,,---,0.00,VWS V14.01,2013-10-23 16:14:00,
2013-10-23 11:19:00,63.8,40.3,30.12,NNW,338,1.6,4.0,42,0.00,,---,0.00,VWS V14.01,2013-10-23 16:19:00,
2013-10-23 11:24:00,64.1,41.2,30.12,NNW,338,2.5,2.5,43,0.00,,---,0.00,VWS V14.01,2013-10-23 16:24:00,
2013-10-23 11:29:00,64.3,40.8,30.12,SE,135,2.5,3.1,42,0.00,,---,0.00,VWS V14.01,2013-10-23 16:29:00,
2013-10-23 11:34:00,64.7,39.8,30.12,North,0,2.0,4.3,40,0.00,,---,0.00,VWS V14.01,2013-10-23 16:34:00,
2013-10-23 11:39:00,65.2,41.6,30.12,NNE,22,1.3,2.5,42,0.00,,---,0.00,VWS V14.01,2013-10-23 16:39:00,
2013-10-23 11:44:00,65.4,40.5,30.12,NNE,22,1.3,2.9,40,0.00,,---,0.00,VWS V14.01,2013-10-23 16:44:00,
2013-10-23 11:49:00,65.6,38.6,30.12,NW,315,7.4,10.7,37,0.00,,---,0.00,VWS V14.01,2013-10-23 16:49:00,
2013-10-23 11:54:00,66.1,38.4,30.12,NNW,338,5.6,5.6,36,0.00,,---,0.00,VWS V14.01,2013-10-23 16:54:00,
2013-10-23 11:59:00,65.9,37.5,30.12,NW,315,3.6,3.6,35,0.00,,---,0.00,VWS V14.01,2013-10-23 16:59:00,
2013-10-23 12:04:00,66.5,38.0,30.12,North,0,3.1,4.3,35,0.00,,---,0.00,VWS V14.01,2013-10-23 17:04:00,
2013-10-23 12:09:00,66.5,38.0,30.12,North,0,2.9,3.4,35,0.00,,---,0.00,VWS V14.01,2013-10-23 17:09:00,
2013-10-23 12:14:00,66.7,38.2,30.12,NNW,338,1.3,5.4,35,0.00,,---,0.00,VWS V14.01,2013-10-23 17:14:00,
2013-10-23 12:19:00,66.8,38.3,30.12,WNW,292,5.8,6.7,35,0.00,,---,0.00,VWS V14.01,2013-10-23 17:19:00,
2013-10-23 12:24:00,67.0,38.5,30.12,NNW,338,3.4,5.8,35,0.00,,---,0.00,VWS V14.01,2013-10-23 17:24:00,
2013-10-23 12:29:00,67.2,38.7,30.12,North,0,5.4,6.0,35,0.00,,---,0.00,VWS V14.01,2013-10-23 17:29:00,
2013-10-23 12:34:00,67.4,38.1,30.12,WNW,292,4.7,4.7,34,0.00,,---,0.00,VWS V14.01,2013-10-23 17:34:00,
2013-10-23 12:39:00,67.4,38.8,30.12,NNW,338,4.7,4.7,35,0.00,,---,0.00,VWS V14.01,2013-10-23 17:39:00,
2013-10-23 12:44:00,67.4,38.1,30.12,NNW,338,6.0,6.0,34,0.00,,---,0.00,VWS V14.01,2013-10-23 17:44:00,
2013-10-23 12:49:00,67.4,38.1,30.12,NE,45,4.3,4.3,34,0.00,,---,0.00,VWS V14.01,2013-10-23 17:49:00,
2013-10-23 12:54:00,67.6,38.2,30.12,WNW,292,2.5,2.9,34,0.00,,---,0.00,VWS V14.01,2013-10-23 17:54:00,
2013-10-23 12:59:00,67.4,38.1,30.12,NW,315,4.9,4.9,34,0.00,,---,0.00,VWS V14.01,2013-10-23 17:59:00,
2013-10-23 13:04:00,67.4,38.1,30.12,NNW,338,2.9,6.0,34,0.00,,---,0.00,VWS V14.01,2013-10-23 18:04:00,
2013-10-23 13:09:00,67.6,39.0,30.12,NNW,338,2.9,3.6,35,0.00,,---,0.00,VWS V14.01,2013-10-23 18:09:00,
2013-10-23 13:14:00,67.4,38.1,30.12,WNW,292,1.1,1.1,34,0.00,,---,0.00,VWS V14.01,2013-10-23 18:14:00,
2013-10-23 13:19:00,67.7,38.4,30.12,West,270,4.3,9.0,34,0.00,,---,0.00,VWS V14.01,2013-10-23 18:19:00,
2013-10-23 13:24:00,67.7,38.4,30.12,NNW,338,1.3,5.6,34,0.00,,---,0.00,VWS V14.01,2013-10-23 18:24:00,
2013-10-23 13:29:00,67.9,38.5,30.12,WNW,292,4.9,8.1,34,0.00,,---,0.00,VWS V14.01,2013-10-23 18:29:00,
2013-10-23 13:34:00,68.3,38.9,30.12,WNW,292,5.8,5.8,34,0.00,,---,0.00,VWS V14.01,2013-10-23 18:34:00,
2013-10-23 13:39:00,68.6,39.2,30.12,NNW,338,2.7,4.3,34,0.00,,---,0.00,VWS V14.01,2013-10-23 18:39:00,
2013-10-23 13:44:00,68.5,38.2,30.09,WNW,292,3.6,3.8,33,0.00,,---,0.00,VWS V14.01,2013-10-23 18:44:00,
2013-10-23 13:49:00,68.8,39.3,30.09,NNE,22,0.0,0.0,34,0.00,,---,0.00,VWS V14.01,2013-10-23 18:49:00,
2013-10-23 13:54:00,68.8,38.6,30.09,NW,315,4.3,4.3,33,0.00,,---,0.00,VWS V14.01,2013-10-23 18:54:00,
2013-10-23 13:59:00,68.8,38.6,30.09,NNW,338,3.6,4.7,33,0.00,,---,0.00,VWS V14.01,2013-10-23 18:59:00,
2013-10-23 14:04:00,68.6,39.2,30.09,NW,315,6.0,6.0,34,0.00,,---,0.00,VWS V14.01,2013-10-23 19:04:00,
2013-10-23 14:09:00,68.8,39.3,30.09,NNE,22,2.2,3.4,34,0.00,,---,0.00,VWS V14.01,2013-10-23 19:09:00,
2013-10-23 14:14:00,68.6,39.2,30.09,WNW,292,0.9,1.1,34,0.00,,---,0.00,VWS V14.01,2013-10-23 19:14:00,
2013-10-23 14:19:00,68.6,38.4,30.09,NW,315,6.0,6.0,33,0.00,,---,0.00,VWS V14.01,2013-10-23 19:19:00,
2013-10-23 14:24:00,68.5,38.2,30.09,NW,315,2.5,3.6,33,0.00,,---,0.00,VWS V14.01,2013-10-23 19:24:00,
2013-10-23 14:29:00,68.6,38.4,30.09,NW,315,2.0,3.1,33,0.00,,---,0.00,VWS V14.01,2013-10-23 19:29:00,
2013-10-23 14:34:00,68.5,38.2,30.09,NW,315,3.4,3.4,33,0.00,,---,0.00,VWS V14.01,2013-10-23 19:34:00,
2013-10-23 14:39:00,68.5,38.2,30.09,NNW,338,2.2,2.2,33,0.00,,---,0.00,VWS V14.01,2013-10-23 19:39:00,
2013-10-23 14:44:00,68.6,38.4,30.09,NW,315,3.4,4.0,33,0.00,,---,0.00,VWS V14.01,2013-10-23 19:44:00,
2013-10-23 14:49:00,68.6,38.4,30.09,North,0,0.0,0.0,33,0.00,,---,0.00,VWS V14.01,2013-10-23 19:49:00,
2013-10-23 14:54:00,68.8,38.6,30.09,NW,315,0.0,1.3,33,0.00,,---,0.00,VWS V14.01,2013-10-23 19:54:00,
2013-10-23 14:59:00,68.6,38.4,30.09,North,0,1.3,2.2,33,0.00,,---,0.00,VWS V14.01,2013-10-23 19:59:00,
2013-10-23 15:04:00,68.6,38.4,30.09,WNW,292,1.6,3.8,33,0.00,,---,0.00,VWS V14.01,2013-10-23 20:04:00,
2013-10-23 15:09:00,68.5,38.2,30.09,North,0,0.9,0.9,33,0.00,,---,0.00,VWS V14.01,2013-10-23 20:09:00,
2013-10-23 15:15:00,68.5,38.2,30.09,NNW,338,1.3,2.2,33,0.00,,---,0.00,VWS V14.01,2013-10-23 20:15:00,
2013-10-23 15:20:00,68.5,38.2,30.09,NNE,22,1.1,1.3,33,0.00,,---,0.00,VWS V14.01,2013-10-23 20:20:00,
2013-10-23 15:25:00,68.3,38.1,30.09,North,0,0.0,2.2,33,0.00,,---,0.00,VWS V14.01,2013-10-23 20:25:00,
2013-10-23 15:30:00,68.3,38.1,30.09,WNW,292,2.0,3.1,33,0.00,,---,0.00,VWS V14.01,2013-10-23 20:30:00,
2013-10-23 15:35:00,68.1,37.2,30.09,WNW,292,2.0,3.1,32,0.00,,---,0.00,VWS V14.01,2013-10-23 20:35:00,
2013-10-23 15:40:00,68.3,38.1,30.09,WNW,292,2.9,4.7,33,0.00,,---,0.00,VWS V14.01,2013-10-23 20:40:00,
2013-10-23 15:45:00,68.1,37.2,30.09,NNE,22,1.6,4.0,32,0.00,,---,0.00,VWS V14.01,2013-10-23 20:45:00,
2013-10-23 15:50:00,68.1,37.2,30.09,WNW,292,5.8,5.8,32,0.00,,---,0.00,VWS V14.01,2013-10-23 20:50:00,
2013-10-23 15:55:00,68.1,37.9,30.09,NNE,22,0.0,1.1,33,0.00,,---,0.00,VWS V14.01,2013-10-23 20:55:00,
2013-10-23 16:00:00,67.9,37.8,30.09,North,0,0.0,0.0,33,0.00,,---,0.00,VWS V14.01,2013-10-23 21:00:00,
2013-10-23 16:05:00,67.7,36.8,30.09,NW,315,4.0,4.9,32,0.00,,---,0.00,VWS V14.01,2013-10-23 21:05:00,
2013-10-23 16:10:00,67.7,37.6,30.09,North,0,0.0,0.0,33,0.00,,---,0.00,VWS V14.01,2013-10-23 21:10:00,
2013-10-23 16:15:00,67.7,37.6,30.09,WNW,292,2.0,2.2,33,0.00,,---,0.00,VWS V14.01,2013-10-23 21:15:00,
2013-10-23 16:20:00,67.7,37.6,30.09,NNW,338,4.0,4.0,33,0.00,,---,0.00,VWS V14.01,2013-10-23 21:20:00,
2013-10-23 16:25:00,67.7,37.6,30.09,NNW,338,6.0,6.0,33,0.00,,---,0.00,VWS V14.01,2013-10-23 21:25:00,
2013-10-23 16:30:00,67.7,37.6,30.09,NNW,338,0.0,4.0,33,0.00,,---,0.00,VWS V14.01,2013-10-23 21:30:00,
2013-10-23 16:35:00,67.7,37.6,30.09,WNW,292,1.3,2.7,33,0.00,,---,0.00,VWS V14.01,2013-10-23 21:35:00,
2013-10-23 16:40:00,67.7,37.6,30.09,North,0,0.0,0.0,33,0.00,,---,0.00,VWS V14.01,2013-10-23 21:40:00,
2013-10-23 16:45:00,67.7,37.6,30.09,North,0,0.0,1.1,33,0.00,,---,0.00,VWS V14.01,2013-10-23 21:45:00,
2013-10-23 16:50:00,67.7,37.6,30.09,NW,315,2.0,2.9,33,0.00,,---,0.00,VWS V14.01,2013-10-23 21:50:00,
2013-10-23 16:55:00,67.7,37.6,30.09,WNW,292,1.1,1.6,33,0.00,,---,0.00,VWS V14.01,2013-10-23 21:55:00,
2013-10-23 17:00:00,66.3,37.8,30.12,NE,45,0.0,1.3,35,0.00,,---,0.00,VWS V14.01,2013-10-23 22:00:00,
2013-10-23 17:05:00,65.8,38.1,30.12,NE,45,0.0,0.0,36,0.00,,---,0.00,VWS V14.01,2013-10-23 22:05:00,
2013-10-23 17:10:00,65.2,39.0,30.12,NNW,338,0.0,0.0,38,0.00,,---,0.00,VWS V14.01,2013-10-23 22:10:00,
2013-10-23 17:15:00,64.9,39.3,30.09,NE,45,0.0,0.0,39,0.00,,---,0.00,VWS V14.01,2013-10-23 22:15:00,
2013-10-23 17:20:00,64.7,39.8,30.09,NNW,338,1.3,2.5,40,0.00,,---,0.00,VWS V14.01,2013-10-23 22:20:00,
2013-10-23 17:25:00,64.1,40.0,30.09,North,0,2.0,2.0,41,0.00,,---,0.00,VWS V14.01,2013-10-23 22:25:00,
2013-10-23 17:30:00,63.8,40.9,30.09,NNE,22,0.0,0.0,43,0.00,,---,0.00,VWS V14.01,2013-10-23 22:30:00,
2013-10-23 17:35:00,63.4,41.2,30.09,NNE,22,0.0,0.0,44,0.00,,---,0.00,VWS V14.01,2013-10-23 22:35:00,
2013-10-23 17:40:00,63.2,41.0,30.09,NE,45,0.0,0.0,44,0.00,,---,0.00,VWS V14.01,2013-10-23 22:40:00,
2013-10-23 17:45:00,62.7,41.1,30.09,NE,45,0.0,0.0,45,0.00,,---,0.00,VWS V14.01,2013-10-23 22:45:00,
2013-10-23 17:50:00,62.3,40.8,30.09,NE,45,0.0,0.0,45,0.00,,---,0.00,VWS V14.01,2013-10-23 22:50:00,
2013-10-23 17:55:00,62.0,41.0,30.09,NE,45,0.0,0.0,46,0.00,,---,0.00,VWS V14.01,2013-10-23 22:55:00,
2013-10-23 18:00:00,61.4,41.0,30.09,NE,45,0.0,0.0,47,0.00,,---,0.00,VWS V14.01,2013-10-23 23:00:00,
2013-10-23 18:05:00,60.9,40.5,30.09,NE,45,0.0,0.0,47,0.00,,---,0.00,VWS V14.01,2013-10-23 23:05:00,
2013-10-23 18:10:00,60.5,40.8,30.09,NNE,22,0.0,0.0,48,0.00,,---,0.00,VWS V14.01,2013-10-23 23:10:00,
2013-10-23 18:15:00,60.2,41.0,30.09,NNE,22,0.0,0.0,49,0.00,,---,0.00,VWS V14.01,2013-10-23 23:15:00,
2013-10-23 18:20:00,59.5,41.3,30.09,NNE,22,0.0,0.0,51,0.00,,---,0.00,VWS V14.01,2013-10-23 23:20:00,
2013-10-23 18:25:00,59.1,41.5,30.09,NNE,22,0.0,0.0,52,0.00,,---,0.00,VWS V14.01,2013-10-23 23:25:00,
2013-10-23 18:30:00,58.9,40.8,30.09,NNE,22,0.0,0.0,51,0.00,,---,0.00,VWS V14.01,2013-10-23 23:30:00,
2013-10-23 18:35:00,58.2,41.2,30.09,NNE,22,0.0,0.0,53,0.00,,---,0.00,VWS V14.01,2013-10-23 23:35:00,
2013-10-23 18:40:00,57.8,41.8,30.12,NNE,22,0.0,0.0,55,0.00,,---,0.00,VWS V14.01,2013-10-23 23:40:00,
2013-10-23 18:45:00,57.5,42.4,30.12,NNE,22,0.0,0.0,57,0.00,,---,0.00,VWS V14.01,2013-10-23 23:45:00,
2013-10-23 18:50:00,56.9,41.9,30.12,NNE,22,0.0,0.0,57,0.00,,---,0.00,VWS V14.01,2013-10-23 23:50:00,
2013-10-23 18:55:00,56.4,41.4,30.12,North,0,0.0,0.0,57,0.00,,---,0.00,VWS V14.01,2013-10-23 23:55:00,
2013-10-23 19:00:00,55.9,41.8,30.12,North,0,0.0,0.0,59,0.00,,---,0.00,VWS V14.01,2013-10-24 00:00:00,
2013-10-23 19:05:00,55.5,42.3,30.12,North,0,0.0,0.0,61,0.00,,---,0.00,VWS V14.01,2013-10-24 00:05:00,
2013-10-23 19:10:00,55.3,42.5,30.12,North,0,0.0,0.0,62,0.00,,---,0.00,VWS V14.01,2013-10-24 00:10:00,
2013-10-23 19:16:00,55.0,42.6,30.12,North,0,0.0,0.0,63,0.00,,---,0.00,VWS V14.01,2013-10-24 00:16:00,
2013-10-23 19:21:00,54.8,43.3,30.12,North,0,0.0,0.0,65,0.00,,---,0.00,VWS V14.01,2013-10-24 00:21:00,
2013-10-23 19:26:00,54.4,43.3,30.12,North,0,0.0,0.0,66,0.00,,---,0.00,VWS V14.01,2013-10-24 00:26:00,
2013-10-23 19:31:00,54.2,42.7,30.12,North,0,0.0,0.0,65,0.00,,---,0.00,VWS V14.01,2013-10-24 00:31:00,
2013-10-23 19:36:00,54.1,43.4,30.12,North,0,0.0,0.0,67,0.00,,---,0.00,VWS V14.01,2013-10-24 00:36:00,
2013-10-23 19:41:00,53.5,42.8,30.12,North,0,0.0,0.0,67,0.00,,---,0.00,VWS V14.01,2013-10-24 00:41:00,
2013-10-23 19:46:00,53.3,42.7,30.12,North,0,0.0,0.0,67,0.00,,---,0.00,VWS V14.01,2013-10-24 00:46:00,
2013-10-23 19:51:00,53.2,42.5,30.12,North,0,0.0,0.0,67,0.00,,---,0.00,VWS V14.01,2013-10-24 00:51:00,
2013-10-23 19:56:00,52.6,42.8,30.12,North,0,0.0,0.0,69,0.00,,---,0.00,VWS V14.01,2013-10-24 00:56:00,
2013-10-23 20:01:00,52.6,42.8,30.12,North,0,0.0,0.0,69,0.00,,---,0.00,VWS V14.01,2013-10-24 01:01:00,
2013-10-23 20:06:00,52.3,42.8,30.12,North,0,0.0,0.0,70,0.00,,---,0.00,VWS V14.01,2013-10-24 01:06:00,
2013-10-23 20:11:00,52.1,42.6,30.12,North,0,0.0,0.0,70,0.00,,---,0.00,VWS V14.01,2013-10-24 01:11:00,
2013-10-23 20:16:00,52.1,43.0,30.12,North,0,0.0,0.0,71,0.00,,---,0.00,VWS V14.01,2013-10-24 01:16:00,
2013-10-23 20:21:00,51.9,42.8,30.12,North,0,0.0,0.0,71,0.00,,---,0.00,VWS V14.01,2013-10-24 01:21:00,
2013-10-23 20:26:00,51.9,43.2,30.12,North,0,0.0,0.0,72,0.00,,---,0.00,VWS V14.01,2013-10-24 01:26:00,
2013-10-23 20:31:00,51.7,43.0,30.15,North,0,0.0,0.0,72,0.00,,---,0.00,VWS V14.01,2013-10-24 01:31:00,
2013-10-23 20:36:00,51.7,43.0,30.15,North,0,0.0,0.0,72,0.00,,---,0.00,VWS V14.01,2013-10-24 01:36:00,
2013-10-23 20:41:00,51.4,42.7,30.12,North,0,0.0,0.0,72,0.00,,---,0.00,VWS V14.01,2013-10-24 01:41:00,
2013-10-23 20:46:00,51.2,42.5,30.12,North,0,0.0,0.0,72,0.00,,---,0.00,VWS V14.01,2013-10-24 01:46:00,
2013-10-23 20:51:00,50.8,42.5,30.12,North,0,0.0,0.0,73,0.00,,---,0.00,VWS V14.01,2013-10-24 01:51:00,
2013-10-23 20:56:00,50.6,42.3,30.12,North,0,0.0,0.0,73,0.00,,---,0.00,VWS V14.01,2013-10-24 01:56:00,
2013-10-23 21:01:00,50.3,42.0,30.12,North,0,0.0,0.0,73,0.00,,---,0.00,VWS V14.01,2013-10-24 02:01:00,
2013-10-23 21:06:00,50.1,42.2,30.12,North,0,0.0,0.0,74,0.00,,---,0.00,VWS V14.01,2013-10-24 02:06:00,
2013-10-23 21:11:00,50.1,42.2,30.12,North,0,0.0,0.0,74,0.00,,---,0.00,VWS V14.01,2013-10-24 02:11:00,
2013-10-23 21:16:00,50.1,42.2,30.15,North,0,0.0,0.0,74,0.00,,---,0.00,VWS V14.01,2013-10-24 02:16:00,
2013-10-23 21:21:00,49.9,42.3,30.15,North,0,0.0,0.0,75,0.00,,---,0.00,VWS V14.01,2013-10-24 02:21:00,
2013-10-23 21:26:00,49.7,41.8,30.12,North,0,0.0,0.0,74,0.00,,---,0.00,VWS V14.01,2013-10-24 02:26:00,
2013-10-23 21:31:00,49.7,42.2,30.12,North,0,0.0,0.0,75,0.00,,---,0.00,VWS V14.01,2013-10-24 02:31:00,
2013-10-23 21:36:00,49.7,42.2,30.12,North,0,0.0,0.0,75,0.00,,---,0.00,VWS V14.01,2013-10-24 02:36:00,
2013-10-23 21:41:00,49.6,42.3,30.12,North,0,0.0,0.0,76,0.00,,---,0.00,VWS V14.01,2013-10-24 02:41:00,
2013-10-23 21:46:00,49.2,41.6,30.15,North,0,0.0,0.0,75,0.00,,---,0.00,VWS V14.01,2013-10-24 02:46:00,
2013-10-23 21:51:00,49.2,42.0,30.15,North,0,0.0,0.0,76,0.00,,---,0.00,VWS V14.01,2013-10-24 02:51:00,
2013-10-23 21:56:00,49.2,42.0,30.15,North,0,0.0,0.0,76,0.00,,---,0.00,VWS V14.01,2013-10-24 02:56:00,
2013-10-23 22:01:00,49.2,42.0,30.15,North,0,0.0,0.0,76,0.00,,---,0.00,VWS V14.01,2013-10-24 03:01:00,
2013-10-23 22:06:00,49.0,41.8,30.15,North,0,0.0,0.0,76,0.00,,---,0.00,VWS V14.01,2013-10-24 03:06:00,
2013-10-23 22:11:00,49.0,41.8,30.15,North,0,0.0,0.0,76,0.00,,---,0.00,VWS V14.01,2013-10-24 03:11:00,
2013-10-23 22:16:00,48.8,41.6,30.15,North,0,0.0,0.0,76,0.00,,---,0.00,VWS V14.01,2013-10-24 03:16:00,
2013-10-23 22:21:00,48.7,41.5,30.15,North,0,0.0,0.0,76,0.00,,---,0.00,VWS V14.01,2013-10-24 03:21:00,
2013-10-23 22:26:00,48.3,41.1,30.15,North,0,0.0,0.0,76,0.00,,---,0.00,VWS V14.01,2013-10-24 03:26:00,
2013-10-23 22:31:00,48.1,40.9,30.15,North,0,0.0,0.0,76,0.00,,---,0.00,VWS V14.01,2013-10-24 03:31:00,
2013-10-23 22:36:00,48.1,40.9,30.15,North,0,0.0,0.0,76,0.00,,---,0.00,VWS V14.01,2013-10-24 03:36:00,
2013-10-23 22:41:00,48.1,41.3,30.15,North,0,0.0,0.0,77,0.00,,---,0.00,VWS V14.01,2013-10-24 03:41:00,
2013-10-23 22:46:00,47.8,40.6,30.15,North,0,0.0,0.0,76,0.00,,---,0.00,VWS V14.01,2013-10-24 03:46:00,
2013-10-23 22:51:00,47.6,40.4,30.15,North,0,0.0,0.0,76,0.00,,---,0.00,VWS V14.01,2013-10-24 03:51:00,
2013-10-23 22:56:00,47.6,40.7,30.15,North,0,0.0,0.0,77,0.00,,---,0.00,VWS V14.01,2013-10-24 03:56:00,
2013-10-23 23:01:00,47.6,41.1,30.15,North,0,0.0,0.0,78,0.00,,---,0.00,VWS V14.01,2013-10-24 04:01:00,
2013-10-23 23:02:00,47.6,41.1,30.15,North,0,0.0,0.0,78,0.00,,---,0.00,VWS V14.01,2013-10-24 04:02:00,
2013-10-23 23:07:00,47.6,41.1,30.15,North,0,0.0,0.0,78,0.00,,---,0.00,VWS V14.01,2013-10-24 04:07:00,
2013-10-23 23:12:00,47.4,40.9,30.15,NNE,22,0.0,0.0,78,0.00,,---,0.00,VWS V14.01,2013-10-24 04:12:00,
2013-10-23 23:17:00,47.4,40.9,30.15,NNE,22,0.0,0.0,78,0.00,,---,0.00,VWS V14.01,2013-10-24 04:17:00,
2013-10-23 23:22:00,47.4,40.6,30.15,NNE,22,0.0,0.0,77,0.00,,---,0.00,VWS V14.01,2013-10-24 04:22:00,
2013-10-23 23:27:00,47.2,40.7,30.15,NE,45,0.0,0.0,78,0.00,,---,0.00,VWS V14.01,2013-10-24 04:27:00,
2013-10-23 23:32:00,47.0,40.9,30.15,NE,45,0.0,0.0,79,0.00,,---,0.00,VWS V14.01,2013-10-24 04:32:00,
2013-10-23 23:37:00,47.0,40.9,30.15,NE,45,0.0,0.0,79,0.00,,---,0.00,VWS V14.01,2013-10-24 04:37:00,
2013-10-23 23:42:00,47.0,40.5,30.15,NE,45,0.0,0.0,78,0.00,,---,0.00,VWS V14.01,2013-10-24 04:42:00,
2013-10-23 23:47:00,46.9,40.4,30.15,NE,45,0.0,0.0,78,0.00,,---,0.00,VWS V14.01,2013-10-24 04:47:00,
2013-10-23 23:52:00,46.9,40.7,30.15,NE,45,0.0,0.0,79,0.00,,---,0.00,VWS V14.01,2013-10-24 04:52:00,
2013-10-23 23:57:00,46.7,40.5,30.15,NE,45,0.0,0.0,79,0.00,,---,0.00,VWS V14.01,2013-10-24 04:57:00,